Newport News, VA

5:05 AM EDT on August 24, 2016 (GMT -0400)
Newport News-Williamsburg International

Weather History for KPHF - January, 2013

Change the Weather History Date:

Tuesday, January 22, 2013

  Actual Average Record
Temperature  
Mean Temperature 32 °F -  
Max Temperature 39 °F 47 °F 71 °F (1999)
Min Temperature 24 °F 31 °F 9 °F (1970)
Degree Days  
Heating Degree Days 34    
Moisture  
Dew Point 6 °F    
Average Humidity 36    
Maximum Humidity 56    
Minimum Humidity 21    
Precipitation  
Precipitation 0.00 in - - ()
Sea Level Pressure  
Sea Level Pressure 30.15 in    
Wind  
Wind Speed 8 mph (NNW)    
Max Wind Speed 15 mph    
Max Gust Speed 23 mph    
Visibility 10 miles    
Events      
Averages and records for this station are not official NWS values.
T = Trace of Precipitation, MM = Missing Value Source: NWS Daily Summary

Daily Weather History Graph

Daily Weather History Graph

Search for Another Location

Airport or City:

Trip Planner

Search our weather history database for the weather conditions in past years. The results will help you decide how hot, cold, wet, or windy it might be!

Date:

Astronomy

Jan. 22, 2013 Rise Set
Actual Time 7:15 AM EST 5:20 PM EST
Civil Twilight 6:47 AM EST 5:48 PM EST
Nautical Twilight 6:15 AM EST 6:19 PM EST
Astronomical Twilight 5:44 AM EST 6:50 PM EST
Moon 1:42 PM EST (1/22) 3:34 AM EST (1/22)
Length of Visible Light 11h 00m
Length of Day
10h 04m
Waxing Gibbous, 82% of the Moon is Illuminated
Jan 22
Waxing Gibbous
Jan 26
Full
Feb 3
Last Quarter
Feb 10
New
Feb 17
First Quarter

Hourly Weather History & Observations

Time (EST) Temp. Windchill Dew Point Humidity Pressure Visibility Wind Dir Wind Speed Gust Speed Precip Events Conditions
12:54 AM 39.0 °F 32.3 °F 18.0 °F 43% 29.93 in 10.0 mi North 10.4 mph - N/A   Clear
1:54 AM 36.0 °F 31.1 °F 16.0 °F 44% 29.97 in 10.0 mi North 5.8 mph - N/A   Clear
2:54 AM 34.0 °F 29.8 °F 17.1 °F 50% 29.98 in 10.0 mi North 4.6 mph - N/A   Clear
3:54 AM 32.0 °F 26.4 °F 18.0 °F 56% 30.01 in 10.0 mi NNW 5.8 mph - N/A   Clear
4:54 AM 32.0 °F 27.5 °F 17.1 °F 54% 30.04 in 10.0 mi North 4.6 mph - N/A   Clear
5:54 AM 30.9 °F 24.3 °F 15.1 °F 52% 30.07 in 10.0 mi NNW 6.9 mph - N/A   Clear
6:54 AM 30.0 °F 25.2 °F 14.0 °F 51% 30.12 in 10.0 mi NNW 4.6 mph - N/A   Clear
7:54 AM 30.9 °F 23.5 °F 12.9 °F 47% 30.14 in 10.0 mi North 8.1 mph - N/A   Clear
8:54 AM 30.9 °F 22.8 °F 10.0 °F 42% 30.17 in 10.0 mi North 9.2 mph - N/A   Clear
9:54 AM 30.9 °F 21.2 °F 5.0 °F 33% 30.19 in 10.0 mi NW 12.7 mph - N/A   Clear
10:54 AM 30.9 °F 20.2 °F 3.9 °F 32% 30.20 in 10.0 mi NW 15.0 mph 21.9 mph N/A   Clear
11:54 AM 33.1 °F 25.5 °F 5.0 °F 31% 30.18 in 10.0 mi NW 9.2 mph 21.9 mph N/A   Clear
12:54 PM 34.0 °F 25.0 °F 1.9 °F 26% 30.16 in 10.0 mi WNW 12.7 mph 21.9 mph N/A   Clear
1:54 PM 35.1 °F 25.9 °F 1.9 °F 25% 30.16 in 10.0 mi NW 13.8 mph - N/A   Clear
2:54 PM 34.0 °F 24.6 °F 1.0 °F 25% 30.16 in 10.0 mi NW 13.8 mph - N/A   Clear
3:54 PM 34.0 °F 24.2 °F -2.9 °F 21% 30.17 in 10.0 mi West 15.0 mph 23.0 mph N/A   Clear
4:54 PM 33.1 °F 25.5 °F -2.9 °F 21% 30.19 in 10.0 mi WNW 9.2 mph - N/A   Clear
5:54 PM 30.0 °F 25.2 °F -2.9 °F 24% 30.22 in 10.0 mi NNW 4.6 mph - N/A   Clear
6:54 PM 28.9 °F 25.2 °F -0.9 °F 28% 30.24 in 10.0 mi NW 3.5 mph - N/A   Clear
7:54 PM 28.0 °F - -2.0 °F 27% 30.25 in 10.0 mi Calm Calm - N/A   Clear
8:54 PM 26.1 °F 19.4 °F -0.0 °F 32% 30.25 in 10.0 mi NNW 5.8 mph - N/A   Clear
9:54 PM 27.0 °F 21.6 °F -0.9 °F 30% 30.26 in 10.0 mi North 4.6 mph - N/A   Clear
10:54 PM 24.1 °F 17.0 °F 1.9 °F 38% 30.27 in 10.0 mi North 5.8 mph - N/A   Clear
11:54 PM 25.0 °F 17.1 °F 5.0 °F 43% 30.27 in 10.0 mi North 6.9 mph - N/A   Clear